Regional Weather Roundup
Issued by NWS Goodland, KS

Home | Current Version | Previous Version | Text Only | Print | Product List | Glossary Off
Versions: 1 2 3 4 5 6 7 8 9 10 11 12 13 14 15 16 17 18 19 20 21 22 23 24 25 26 27 28 29 30 31 32 33 34 35 36 37 38 39 40 41 42 43 44 45 46 47 48 49 50

000
ASUS43 KGLD 170859
RWRGLD

GOODLAND FORECAST AREA HOURLY WEATHER ROUNDUP
NATIONAL WEATHER SERVICE GOODLAND KS
300 AM MDT THU APR 17 2014

...OFFICIAL OBSERVATIONS...

CITY           SKY/WX    TMP DP  RH WIND       PRES   REMARKS
GOODLAND KS    CLOUDY    33  30  88 E6        30.17S
HILL CITY KS   CLOUDY    34  27  75 NE14      30.21S
IMPERIAL NEB   CLOUDY    32  27  81 E8        30.20R
MCCOOK NEB     CLOUDY    33  27  78 NE9       30.22S
AKRON CO       MOCLDY    32  30  92 SE13      30.12S
BURLINGTON CO  CLOUDY    37  32  82 E7        30.15S
LIMON CO       MOCLDY    35  32  88 S7        30.13S
$$

...UNOFFICIAL OBSERVATIONS...

CITY           SKY/WX    TMP DP  RH WIND       PRES   REMARKS
GOVE KS          N/A     36  32  85 NE8         N/A
LENORA KS        N/A     33  32  96 N12         N/A
LEOTI KS         N/A     43  32  65 NE7         N/A
NORTON KS      CLOUDY    30  27  86 N10       30.19F
SHARON SPRINGS   N/A     40  33  77 E10         N/A
WAKEENEY KS      N/A     34  26  72 MISG        N/A
KIT CARSON CO    N/A     41  32  71 MISG        N/A
$$



USA.gov is the U.S. government's official web portal to all federal, state and local government web resources and services.